Flag for U.S.A. Weather past 2 weeks in Worcester, Massachusetts, U.S.A.

Now
66 °F

Passing clouds.


Feels Like: 66 °F
Forecast: 65 / 75 °F
Wind: 6 mph from Northwest

Location: Worcester Regional Airport

Current Time: Jul 24, 2014 at 5:31:23 AM

Latest Report: Jul 24, 2014 at 4:54 AM


Visibility: 10 mi

Pressure: 29.80 "Hg

Humidity: 90%

Dew point: 63 °F

Location of WorcesterLocation

Historic Weather in Worcester — Graph

°F

Worcester temperature yesterday

Maximum temperature yesterday: 86 °F (at 2:54 PM)
Minimum temperature yesterday: 67 °F (at 3:54 AM)
Average temperature yesterday: 76 °F

Past Weeks' High & Low Weather Summary

 TemperatureHumidityPressure
High86 °F (Jul 23, 2:54 PM)100% (Jul 21, 6:54 AM)30.29 "Hg (Jul 21, 6:54 AM)
Low57 °F (Jul 21, 6:54 AM)36% (Jul 18, 4:54 PM)29.73 "Hg (Jul 9, 3:54 AM)
Average70 °F72%30.04 "Hg
* Reported Jul 9 3:54 AM — Jul 24 3:54 AM, Worcester, Weather by CustomWeather, © 2014

Note: Actual official high and low records may vary slightly from our data, if they occured in-between our weather recording intervals... More about our weather records

Advertising

Worcester weather history for previous 24 hours

 ConditionsComfort  
Time TempWeatherWind HumidityBarometerVisibility
3:54 AM
Jul 24
69 °FOvercast.10 mph90%29.78 "Hg10 mi
3:04 AM69 °FMostly cloudy.8 mph93%29.79 "Hg7 mi
2:02 AM69 °FPassing clouds.12 mph93%29.81 "Hg7 mi
1:54 AM68 °FFog.12 mph96%29.78 "Hg6 mi
12:54 AM69 °FClear.7 mph93%29.78 "Hg8 mi
11:54 PM
Jul 23
68 °FLight rain. Passing clouds.6 mph96%29.80 "Hg7 mi
10:54 PM68 °FLight rain. Mostly cloudy.10 mph96%29.83 "Hg7 mi
9:54 PM70 °FThundershowers. Passing clouds.9 mph87%29.85 "Hg10 mi
8:54 PM76 °FSunny.10 mph82%29.81 "Hg10 mi
7:54 PM78 °FSunny.12 mph76%29.80 "Hg10 mi
6:54 PM80 °FSunny.12 mph71%29.78 "Hg10 mi
5:54 PM82 °FSunny.15 mph67%29.78 "Hg10 mi
4:54 PM84 °FScattered clouds.14 mph63%29.79 "Hg10 mi
3:54 PM86 °FBroken clouds.17 mph59%29.80 "Hg10 mi
2:54 PM86 °FPassing clouds.14 mph55%29.83 "Hg10 mi
1:54 PM84 °FScattered clouds.10 mph61%29.85 "Hg10 mi
12:54 PM84 °FPassing clouds.12 mph59%29.87 "Hg10 mi
11:54 AM82 °FPassing clouds.9 mph67%29.89 "Hg10 mi
10:54 AM79 °FSunny.12 mph69%29.92 "Hg10 mi
9:54 AM78 °FPassing clouds.10 mph74%29.93 "Hg10 mi
8:54 AM73 °FPartly sunny.10 mph81%29.96 "Hg10 mi
7:54 AM72 °FSunny.13 mph84%29.96 "Hg10 mi
6:54 AM69 °FSunny.10 mph90%29.96 "Hg10 mi
5:54 AM67 °FClear.12 mph93%29.96 "Hg10 mi
Weather by CustomWeather, © 2014

See weather overviewHow to use our weather pages